Regional Weather Roundup
Issued by NWS

Home | Current Version | Previous Version | Graphics & Text | Print | Product List | Glossary On
Versions: 1 2 3 4 5 6 7 8 9 10 11 12 13 14 15 16 17 18 19 20 21 22 23 24 25 26 27 28 29 30 31 32 33 34 35 36 37 38 39 40 41 42 43 44 45 46 47 48 49 50
000
ASUS44 KMEG 260700
RWRTN
TENNESSEE HOURLY STATE WEATHER ROUNDUP
NATIONAL WEATHER SERVICE MEMPHIS TN
200 AM CDT MON SEP 26 2016

TNZ002-004-019-021-049-052-054-088>092-260800-
WEST TENNESSEE

CITY           SKY/WX    TMP DP  RH WIND       PRES   REMARKS
MEMPHIS INTL   PTCLDY    76  69  79 NW7       29.99F
NWS MEMPHIS      N/A     74 N/A N/A MISG        N/A
JACKSON          N/A    N/A N/A N/A MISG      29.99F
DYERSBURG      MOCLDY   N/A N/A N/A MISG        N/A
PARIS          CLEAR     66  64  94 CALM      30.00F
$$

TNZ008-025-027-028-033-062-065-066-260800-
NORTH MIDDLE TENNESSEE

CITY           SKY/WX    TMP DP  RH WIND       PRES   REMARKS
NASHVILLE      CLEAR     68  65  90 S6        30.01F
CLARKSVILLE    CLEAR     68  66  93 CALM      30.00F
SMYRNA         CLEAR     67  65  93 CALM      30.03S
COOKEVILLE     CLEAR     68  66  94 CALM      30.03S
CROSSVILLE     CLEAR     65  63  93 CALM      30.09F
$$

TNZ061-075-076-078-094-096-097-260800-
SOUTH MIDDLE TENNESSEE

CITY           SKY/WX    TMP DP  RH WIND       PRES   REMARKS
SHELBYVILLE    CLEAR     70  66  88 W3        30.04R
$$

TNZ017-018-042-046-047-260800-
NORTHEAST TENNESSEE

CITY           SKY/WX    TMP DP  RH WIND       PRES   REMARKS
TRI CITIES     CLEAR     65  62  90 CALM      30.10S
$$

TNZ012-013-036-069-073-074-260800-
CENTRAL EAST TENNESSEE

CITY           SKY/WX    TMP DP  RH WIND       PRES   REMARKS
KNOXVILLE      CLEAR     72  64  76 CALM      30.04F
OAK RIDGE      CLEAR     70  66  87 CALM      30.06F
GATLINBURG     CLEAR     66  63  88 CALM      30.05S
$$

TNZ083-085-099-260800-
SOUTHEAST TENNESSEE

CITY           SKY/WX    TMP DP  RH WIND       PRES   REMARKS
CHATTANOOGA    PTCLDY    75  63  66 CALM      30.05S
$$

SKY/WX REPORTED AS FAIR MEANS FEW OR NO CLOUDS BELOW
12 THOUSAND FEET.




USA.gov is the U.S. government's official web portal to all federal, state and local government web resources and services.